NIMIQ 5

Satellite information

Favourite Embed

Satellite Type and Status

PAYLOADIN ORBIT

Key statistics

Satellite NIMIQ 5 at a glance.

Uptime

5826

Days in orbit

Revolutions

≈ 1.0

Per day

Orbit

GEO

Geostationary Orbit

Inclination

0.1

Latest

Satellite identification and parameters

Extended collection of information and parameters for NIMIQ 5.

Object identification

Identified? True

Debris? False

Object name: NIMIQ 5

International designator: 2009-050A

Object number (NORAD): 35873

Object ID (CCSDS): 35873

Country: CANADA (CA)

Current information (Y/N): Y

RCS size: LARGE

Orbital parameters

Period: 1436.08 minutes

Inclination: 0.0609 deg

SMA: 42164.407 km

Apoapsis: 35797.056 km

Periapsis: 35775.489 km

RAAN: 273.7044 deg

Eccentricy: 0.00025574

Argument of periapsis: 237.84 deg

Mean anomaly: 66.3579 deg

Mean motion: 1.00272943 rev/day

Mean motion (dot): -0.00000255 rev/day2

B* drag term: 0.0 1/REarth

Two-line elements (TLE)

Creation date: Aug. 29, 2025, 2:15 a.m.

Reference frame: TEME

Reference center: EARTH

Epoch: Aug. 28, 2025, 8:53 p.m. UTC

TLE line 0: 0 NIMIQ 5

TLE line 1: 1 35873U 09050A 25240.87021499 -.00000255 00000-0 00000-0 0 9996

TLE line 2: 2 35873 0.0609 273.7044 0002557 237.8400 66.3579 1.00272943 58415

Live tracking on map

Real-time ground track for satellite NIMIQ 5.

In-orbit conjunctions

There are no conjunctions computed for NIMIQ 5, at the moment. Check back to stay up to date, as we update our databases every day.

Go to all conjunctions

Associated space launch

Russian meteorology satellite

NIMIQ 5 was lifted into orbit during the mission ‘Soyuz 2.1b/Fregat | Meteor-M 1’, on board a Soyuz 2.1b/Fregat space rocket.

The launch took place on Sept. 17, 2009, 3:55 p.m. from 31/6.

For more information about the launch, click the button.

Launch to space Soyuz 2.1b/Fregat | Meteor-M 1
Soyuz 2.1b/Fregat | Meteor-M 1

Agency: N/A

Status: Launch Successful

Launch date: Sept. 17, 2009, 3:55 p.m. UTC

Rocket: Soyuz 2.1b/Fregat

Launch pad: 31/6

Location: Baikonur Cosmodrome, Republic of Kazakhstan

...

Latest news about this satellite

There are no fresh news available about this satellite. Check back as we update our databases every day.


Newsletter sign-up

Weekly statistics, charts and insights to help you stay on top of the space industry.